YZ-1 R/B (44795 NORAD) Tracking and Keplerian Element Data

This shows tracking and keplerian element data for the satellite.

Feedback or suggestion? Click here.




ElementValue
Catalog44795
NameYZ-1 R/B
Epoch Orbit43
Epoch Day351.34436209
Epoch Year2019
RAAN22.2332
Inclination55.1814
Eccentricity0.0069516
Argument of Perigee4.8194
Mean Anonmoly355.3089
Mean Motion1.78051477
Decay Rate-6.4E-07
L11 44795U 19078C 19351.34436209 -.00000064 00000-0 00000-0 0 9995
L22 44795 55.1814 22.2332 0069516 4.8194 355.3089 1.78051477 432

Live tracking and technical data element details for YZ-1 R/B (NORAD 44795). YZ-1 R/B can be tracked NOW for your location showing map with azimuth and elevation plus other details from your city location.

Track the satellite on the map from your city or location and see movement details for azimuth, elevation, latitude, longitude, range, height, and movement on the map or in text.







IsCatalogInMostPopularTable: catalog: 44795, numindb: 7
Update: records affected: 1



GetName: 44795 YZ-1 R/B

Hit Count: updated at: Sat, 18 Jan 2020 17:29:17 GMT